Simultaneous Nadir Overpasses (SNOs) Predictions

Prediction of SNOs between AQUA and METOP-B Satellite Orbit:

Table of predicted SNOs for the next 14.0 days since TLE Epoch: 11/30/2018
Index Date (AQUA) Time (AQUA) Lat,Lon (AQUA) SZA (AQUA ) Date (METOP-B) Time (METOP-B) Lat,Lon (METOP-B) SZA (METOP-B ) Distance(km) Time Diff (sec)
1 12/02/2018 09:19:58 73.85, 34.17 95.75 12/02/2018 09:19:04 73.86, 34.12 95.76 1.59 54
2 12/02/2018 10:09:25 -73.91,-158.32 84.19 12/02/2018 10:09:44 -73.93,-158.38 84.17 2.92 19
3 12/02/2018 10:59:05 74.57, 7.77 96.51 12/02/2018 11:00:11 74.58, 10.61 96.48 83.91 66
4 12/05/2018 04:54:12 73.85, 100.61 96.14 12/05/2018 04:53:28 73.87, 100.54 96.16 2.69 44
5 12/05/2018 05:43:40 -73.96, -91.99 83.75 12/05/2018 05:44:08 -73.94, -91.94 83.76 2.52 28
6 12/08/2018 00:28:27 73.85, 167.04 96.48 12/08/2018 00:27:53 73.87, 166.96 96.50 2.94 34
7 12/08/2018 01:17:55 -73.97, -25.57 83.40 12/08/2018 01:18:33 -73.95, -25.51 83.42 2.31 38
8 12/10/2018 20:02:42 73.87,-126.55 96.77 12/10/2018 20:02:18 73.88,-126.62 96.79 2.35 24
9 12/10/2018 20:52:10 -73.98, 40.84 83.11 12/10/2018 20:52:58 -73.96, 40.92 83.14 3.14 48
10 12/13/2018 14:47:21 -73.49, 133.08 83.41 12/13/2018 14:46:11 -73.44, 131.43 83.42 52.40 70
11 12/13/2018 15:36:56 73.89, -60.15 97.01 12/13/2018 15:36:42 73.88, -60.20 97.01 1.85 14
12 12/13/2018 16:26:23 -73.95, 107.35 82.93 12/13/2018 16:27:22 -73.97, 107.34 82.91 2.01 59




NCC Satellite Simultaneous Nadir Overpasses (SNOs) Prediction Service
